Simultaneous Nadir Overpasses (SNOs) Predictions

Prediction of SNOs between GOES-15 and METOP-B Satellite Orbit:

Table of predicted SNOs for the next 14.0 days since TLE Epoch: 2/24/2017
Index Date Time (GOES-15) GOES-15 Lat,Lon METOP-B Lat,Lon Distance(km) Time Diff (sec)
1 02/25/2017 06:17:45 -0.04,-135.25 0.82,-131.32 448.10 80
2 02/26/2017 18:36:38 0.04,-135.21 0.18,-135.88 76.48 80
3 02/27/2017 18:13:18 0.04,-135.19 -0.93,-130.89 489.96 80
4 03/01/2017 06:32:18 -0.04,-135.16 -0.10,-135.48 37.16 80
5 03/03/2017 18:30:30 0.04,-135.08 0.04,-135.04 3.57 80
6 03/06/2017 06:31:31 -0.03,-135.00 0.03,-134.64 39.88 80
7 03/07/2017 18:50:22 0.02,-134.94 1.00,-139.20 486.50 80
8 03/08/2017 18:27:03 0.02,-134.90 -0.10,-134.21 78.50 80
9 03/10/2017 06:46:03 -0.02,-134.85 -0.93,-138.80 451.33 80




NCC Satellite Simultaneous Nadir Overpasses (SNOs) Prediction Service
